Strona główna
METAR-TAF:

METAR-TAF

Lotnisko :

Ohio State University Airport

Columbus, Ohio, Stany Zjednoczone

Szerokość geograficzna: 40-04-41N, Długość geograficzna: 083-04-41W, wysokość: 275 m

Aktualna obserwacja pogody

Raport powstał 53 minut temu, godzina 04:53 UTC
Wiatr 3 kt od południowy zachód
Temperatura 1°C
Wilgotność 55%
Ciśnienie 1018 hPa
Widzialność: 16.1 km
bezchmurnie

METAR: KOSU 030453Z AUTO 22003KT 10SM CLR 01/M07 A3005 RMK AO2 SLP185 T00061072 400501072

czas: 00:46 (05:46 UTC)


TAF: brakujący

Obserwacja i prognoza pogody dla ponad 4000 lotnisk (raport METAR i TAF).

Dostępne stacje oznaczono żółtymi i czerwonymi punktami na mapie.

Najedź kursorem aby zobaczyć nazwę stacji.

Kliknij aby zobaczyć obserwacje i prognozy pogody.

Aby zmienić mapę: kliknij na zielony przycisk z czarnym krzyżykiem, aby powiększyć; na zielony przycisk z myślnikiem, aby pomniejszyć; na zielone strzałki, aby przejść do map sąsiednich.


METAR-TAF: